Weather History for Homestead AFB, FL

Change the Weather History Date:

Thursday, February 7, 2013

  Actual Average Record
Temperature  
Mean Temperature 71 °F -  
Max Temperature 79 °F 77 °F 86 °F (1939)
Min Temperature 63 °F 55 °F 36 °F (1978)
Cooling Degree Days 6    
Growing Degree Days 21 (Base 50)    
Moisture  
Dew Point 64 °F    
Average Humidity 80    
Maximum Humidity 99    
Minimum Humidity 60    
Precipitation  
Precipitation 0.00 in - - ()
Sea Level Pressure  
Sea Level Pressure 30.04 in    
Wind  
Wind Speed 5 mph (ESE)    
Max Wind Speed 13 mph    
Max Gust Speed -    
Visibility 10 miles    
Events Rain    
Averages and records for this station are not official NWS values.
T = Trace of Precipitation, MM = Missing Value Source: NWS Daily Summary

Daily Weather History Graph

Daily Weather History Graph

Search for Another Location

Airport:

Trip Planner

Search our weather history database for the weather conditions in past years. The results will help you decide how hot, cold, wet, or windy it might be!

Date:

Astronomy

Feb. 07, 2013 Rise Set
Actual Time 7:01 AM EST 6:10 PM EST
Civil Twilight 6:37 AM EST 6:33 PM EST
Nautical Twilight 6:10 AM EST 7:01 PM EST
Astronomical Twilight 5:43 AM EST 7:28 PM EST
Moon 4:30 AM EST (2/7) 3:40 PM EST (2/7)
Length of Visible Light 11h 56m
Length of Day
11h 08m
Waning Crescent, 9% of the Moon is Illuminated
Feb 7
Waning Crescent
Feb 10
New
Feb 17
First Quarter
Feb 25
Full
Mar 4
Last Quarter

Hourly Weather History & Observations

Time (EST) Temp. Dew Point Humidity Pressure Visibility Wind Dir Wind Speed Gust Speed Precip Events Conditions
12:58 AM 70.7 °F 64.2 °F 80% 30.08 in 10.0 mi East 5.8 mph - N/A   Clear
1:58 AM 70.2 °F 63.9 °F 80% 30.08 in 10.0 mi East 4.6 mph - N/A   Clear
2:58 AM 69.1 °F 64.0 °F 84% 30.07 in 10.0 mi East 4.6 mph - N/A   Clear
3:58 AM 68.0 °F 64.2 °F 88% 30.05 in 10.0 mi East 5.8 mph - N/A   Clear
4:58 AM 68.4 °F 62.8 °F 82% 30.05 in 10.0 mi East 5.8 mph - N/A   Clear
5:58 AM 65.8 °F 62.4 °F 89% 30.05 in 10.0 mi East 4.6 mph - N/A   Clear
6:41 AM 66.2 °F 62.6 °F 88% 30.05 in 10.0 mi East 4.6 mph - N/A   Light Drizzle
6:58 AM 67.1 °F 63.1 °F 87% 30.06 in 10.0 mi East 4.6 mph - N/A Rain Light Rain
7:06 AM 64.4 °F 62.6 °F 94% 30.05 in 10.0 mi East 3.5 mph - N/A   Clear
7:58 AM 64.8 °F 62.6 °F 93% 30.08 in 10.0 mi East 3.5 mph - N/A   Clear
8:58 AM 74.1 °F 65.1 °F 73% 30.09 in 10.0 mi East 5.8 mph - N/A   Clear
9:58 AM 75.7 °F 64.8 °F 69% 30.09 in 10.0 mi Variable 5.8 mph - N/A   Clear
10:58 AM 76.5 °F 64.4 °F 66% 30.09 in 10.0 mi Variable 5.8 mph - N/A   Scattered Clouds
11:58 AM 77.9 °F 65.1 °F 65% 30.07 in 10.0 mi ESE 10.4 mph - N/A   Clear
12:58 PM 79.3 °F 65.1 °F 62% 30.03 in 10.0 mi East 9.2 mph - N/A   Scattered Clouds
1:58 PM 79.7 °F 66.0 °F 63% 30.00 in 10.0 mi SE 12.7 mph - N/A   Clear
2:58 PM 79.7 °F 64.9 °F 61% 29.98 in 10.0 mi SE 9.2 mph - N/A   Partly Cloudy
3:58 PM 78.4 °F 64.4 °F 62% 29.98 in 10.0 mi SE 6.9 mph - N/A   Clear
4:58 PM 79.0 °F 63.9 °F 60% 29.99 in 10.0 mi ESE 8.1 mph - N/A   Clear
5:58 PM 75.9 °F 66.0 °F 71% 29.99 in 10.0 mi SE 4.6 mph - N/A   Clear
6:58 PM 70.9 °F 64.9 °F 81% 30.00 in 10.0 mi SSE 2.3 mph - N/A   Clear
7:58 PM 67.5 °F 64.9 °F 92% 30.02 in 10.0 mi SSE 3.5 mph - N/A   Clear
8:58 PM 67.5 °F 63.5 °F 87% 30.04 in 10.0 mi Calm Calm - N/A   Clear
9:58 PM 65.5 °F 65.3 °F 99% 30.04 in 10.0 mi Calm Calm - N/A   Clear
10:58 PM 63.9 °F 63.1 °F 97% 30.03 in 10.0 mi South 3.5 mph - N/A   Clear
11:58 PM 63.7 °F 63.5 °F 99% 30.02 in 8.0 mi SSW 2.3 mph - N/A   Clear